Wind_Speed
35 35 35 35 36 36 36 37 37 38 38 39 40 41 41 42 42 42 43 43 44 45 46 47 48 49 50 51 52 54 55 56 57 58 59 59 60 60 61 61 62 63
36 36 36 37 37 38 38 39 39 39 40 41 41 42 43 43 44 44 45 45 46 47 48 49 50 51 52 53 54 55 56 57 58 59 59 60 60 61 61 62 64 65
37 37 37 38 38 39 40 40 41 41 42 42 43 44 44 45 45 46 46 47 48 49 50 51 53 54 54 55 56 56 57 58 58 59 60 60 61 61 62 64 66 68
37 38 38 39 39 40 41 41 42 43 43 44 45 46 46 47 47 48 49 49 50 51 52 54 55 56 56 56 56 57 58 58 59 60 60 61 61 63 64 66 67 69
39 39 40 40 41 42 43 43 44 44 45 46 47 47 48 49 49 50 51 51 52 53 55 56 56 56 56 57 57 58 58 59 60 60 61 61 63 65 66 68 69 70
41 41 42 42 43 44 45 45 46 47 47 48 49 49 50 51 52 53 53 53 54 56 57 57 57 57 57 57 57 58 59 60 61 61 62 63 65 67 68 69 70 71
43 44 44 45 45 46 47 47 48 49 49 50 51 51 52 53 54 54 54 55 56 57 58 57 57 57 57 57 58 60 61 61 61 62 63 65 67 69 70 70 72 73
46 46 46 47 47 48 49 49 50 51 51 52 52 53 54 55 55 55 56 57 58 58 57 57 56 57 57 58 60 61 61 61 62 64 66 68 69 70 71 72 73 75
47 48 48 49 49 50 50 51 51 52 52 53 54 54 55 56 56 56 57 57 58 57 57 56 56 57 58 60 61 61 61 62 64 66 68 70 71 71 73 74 75 76
49 49 50 50 50 51 51 52 52 53 53 54 55 55 56 56 56 57 57 57 57 57 56 57 57 59 60 61 61 62 63 65 67 69 70 71 72 73 74 75 76 76
49 50 50 51 51 51 52 52 53 53 54 54 55 56 56 57 57 57 57 57 57 57 57 58 59 60 60 61 62 64 65 67 69 70 71 72 73 74 75 76 76 76
50 50 50 51 51 51 52 52 53 54 54 55 56 56 57 57 57 57 57 57 57 57 58 59 60 61 61 63 64 66 67 69 70 71 72 74 74 75 76 76 76 76
49 50 50 50 51 52 52 53 54 54 55 56 56 56 57 57 57 57 57 58 58 59 59 60 61 62 63 65 66 68 69 70 71 73 74 75 75 76 76 76 75 75
50 50 51 51 52 53 53 54 55 55 56 56 56 56 56 57 57 58 58 58 59 60 60 61 63 64 65 67 68 69 70 72 73 74 75 75 76 75 75 75 75 75
50 51 52 52 53 53 54 55 55 55 56 56 56 56 57 57 57 58 58 59 60 61 62 63 65 66 67 68 70 71 72 73 74 74 75 75 75 75 75 75 75 76
51 52 52 53 53 54 54 54 55 55 55 56 56 57 57 57 58 58 59 60 61 62 64 66 67 68 69 70 71 72 73 74 74 75 75 74 74 74 75 75 76 77
52 52 52 53 53 54 54 54 55 55 56 56 57 57 57 58 58 59 60 61 63 65 66 68 69 70 71 72 73 73 74 74 75 74 73 73 73 74 75 76 76 77
52 52 53 53 53 54 54 55 55 55 56 56 57 57 58 58 59 60 62 64 65 67 68 69 70 71 72 73 73 74 74 74 73 73 73 73 74 74 75 76 76 76
53 53 53 53 54 54 54 55 55 55 56 56 57 58 59 60 61 63 64 66 67 68 69 70 71 72 73 74 74 74 74 72 71 72 73 74 74 75 76 76 75 74
53 53 53 53 54 54 54 55 55 56 56 57 58 60 61 62 64 65 66 68 69 70 71 71 72 73 74 74 74 73 71 70 71 72 74 75 75 76 75 75 74 73
52 52 53 53 54 54 55 55 56 57 58 59 61 62 63 64 66 67 68 69 70 71 71 73 73 74 74 73 72 70 70 70 72 73 75 75 75 75 75 74 74 74
51 51 52 53 54 55 55 56 57 59 60 61 63 64 65 66 67 68 69 70 71 72 73 73 74 73 72 71 69 70 70 71 72 74 75 75 75 74 74 74 75 76
51 52 53 54 55 56 57 58 60 61 62 63 65 66 66 67 68 69 70 71 72 72 73 72 72 71 70 69 70 70 71 72 73 73 73 74 74 74 74 75 76 78
53 54 55 56 57 58 59 60 62 63 64 65 66 67 68 68 69 70 71 71 72 72 71 70 70 69 69 70 70 71 72 72 72 72 73 73 74 74 75 76 78 80
56 57 58 58 59 60 61 62 63 64 65 66 67 68 68 69 70 71 71 70 70 70 69 69 69 70 70 70 70 71 71 71 71 72 73 73 73 74 76 78 80 81
57 58 59 60 61 62 63 63 64 65 66 67 68 69 70 70 70 70 69 68 68 69 69 70 70 70 70 70 70 71 71 71 72 72 73 73 74 75 77 79 81 82
Wind_Direction
274 274 275 277 278 279 280 280 281 281 282 283 284 285 286 287 288 289 290 290 291 292 293 294 294 295 295 295 295 296 296 297 298 299 300 301 301 301 302 303 304 305
274 274 275 277 278 279 279 280 281 282 283 283 284 285 286 287 288 288 289 289 290 291 292 293 293 293 293 293 294 295 296 298 299 300 301 301 301 302 303 304 305 306
274 275 275 276 277 278 279 280 281 282 282 283 284 285 286 286 287 288 288 289 290 290 291 292 292 292 292 292 294 295 297 299 300 300 301 301 302 303 304 305 306 307
274 275 275 276 277 278 279 280 281 281 282 283 284 284 285 286 286 287 287 288 289 290 291 291 291 291 292 293 295 296 298 299 300 300 300 301 302 304 305 306 306 307
274 275 276 276 277 278 279 280 280 281 281 282 283 284 285 286 286 286 287 287 288 289 290 290 290 291 292 294 296 298 299 299 299 300 300 302 303 304 305 306 306 307
274 275 276 277 277 278 278 279 280 280 280 281 283 284 284 285 285 285 285 286 287 288 289 289 290 292 293 295 296 298 298 298 299 300 301 303 304 305 305 306 306 307
274 275 275 276 276 276 277 277 278 279 280 281 282 283 283 284 284 284 285 286 287 287 288 290 291 292 294 295 297 297 298 298 299 300 302 303 304 305 305 305 306 307
273 273 274 274 274 275 275 276 277 278 279 280 281 282 282 282 282 283 284 285 286 287 289 290 292 293 294 296 297 297 297 299 300 301 302 303 304 304 305 306 306 307
273 273 273 274 274 274 275 276 277 278 279 280 280 280 281 281 282 283 284 285 286 288 290 291 292 293 295 296 296 297 298 299 300 302 303 303 304 305 305 306 307 307
272 273 273 273 274 274 275 275 276 277 278 278 279 279 280 281 281 283 284 286 287 289 290 291 292 293 294 295 296 297 298 300 301 302 303 304 304 305 306 306 307 307
271 271 272 272 273 273 274 275 275 276 277 277 278 279 280 281 282 283 285 287 288 289 290 291 292 293 294 295 296 298 299 300 302 302 303 304 304 305 306 306 306 306
270 270 271 271 272 273 274 274 275 276 276 277 278 279 280 281 283 285 287 288 288 289 290 291 292 293 295 296 297 298 300 301 302 302 303 304 304 305 305 305 306 306
270 271 271 272 273 273 274 274 275 276 276 277 278 280 281 283 284 286 287 287 288 289 290 292 293 294 295 296 298 299 300 301 302 303 303 304 304 305 305 305 305 306
270 271 271 272 272 273 274 274 275 276 277 278 279 281 282 284 285 286 287 287 289 290 291 292 294 295 296 297 298 299 300 301 302 303 303 304 304 304 305 305 306 306
270 271 272 272 273 273 274 275 276 277 278 279 280 282 283 284 285 286 287 288 289 291 292 293 294 295 296 298 299 300 301 301 302 303 303 304 304 304 305 305 306 307
271 272 272 273 274 274 275 276 277 278 279 280 281 283 283 284 285 286 287 289 290 291 292 293 294 296 297 298 299 300 301 301 302 303 303 303 304 304 305 305 306 307
272 273 274 274 275 276 277 278 279 280 281 281 282 283 284 284 286 287 288 289 290 291 293 294 295 296 297 298 299 300 301 301 302 303 303 303 303 304 305 305 306 307
273 274 275 276 277 278 278 279 280 280 281 282 282 283 284 285 286 288 289 290 291 292 293 294 296 297 297 298 299 300 301 301 302 302 302 302 303 304 304 305 306 306
273 275 276 277 278 279 279 280 280 280 281 282 283 284 285 286 287 288 289 290 291 292 293 295 296 297 297 298 299 300 300 301 301 302 302 302 303 303 304 305 305 305
276 277 278 278 279 279 279 280 280 281 282 283 283 284 285 286 287 288 289 290 291 293 294 295 296 296 297 298 299 299 300 301 301 301 302 302 303 303 304 304 304 304
276 277 277 278 278 278 279 279 280 281 282 283 283 284 285 286 287 288 290 291 292 293 294 295 295 296 297 298 299 299 300 301 301 301 302 302 302 303 303 303 304 304
275 275 276 276 277 277 278 279 280 281 282 282 283 284 286 287 288 289 290 291 293 293 294 294 295 296 297 298 299 299 300 301 301 301 301 302 302 302 303 303 303 304
274 274 274 275 276 277 278 279 280 281 282 283 284 285 286 287 289 290 291 292 293 293 293 294 295 296 297 298 299 300 300 300 300 300 301 301 301 302 303 303 304 305
273 274 275 276 277 278 278 279 280 281 282 283 285 286 287 288 289 290 291 291 292 292 293 294 295 296 297 298 299 300 300 299 300 300 300 300 301 302 303 303 304 305
274 275 276 276 277 278 279 280 281 282 283 284 285 286 287 288 289 290 290 291 292 292 293 294 295 297 298 298 299 299 298 298 299 299 299 300 301 302 303 303 304 304
274 275 276 276 277 278 279 280 281 282 284 285 286 287 288 288 289 290 290 291 291 292 293 294 296 297 297 297 297 297 297 297 298 298 299 300 301 301 302 303 303 303
Height
5848 5847 5847 5847 5846 5846 5845 5845 5844 5843 5842 5841 5839 5838 5837 5836 5834 5833 5832 5830 5829 5827 5826 5824 5822 5820 5818 5815 5813 5810 5808 5805 5803 5801 5798 5795 5792 5789 5786 5783 5779 5776
5844 5843 5843 5843 5842 5842 5841 5840 5839 5838 5837 5836 5835 5834 5833 5831 5830 5829 5827 5825 5824 5822 5820 5819 5817 5815 5812 5810 5807 5805 5803 5800 5798 5795 5792 5789 5786 5783 5780 5777 5773 5770
5840 5839 5839 5839 5838 5837 5837 5836 5835 5834 5832 5831 5830 5829 5828 5827 5825 5824 5822 5820 5819 5817 5815 5813 5811 5809 5806 5804 5802 5800 5798 5795 5792 5789 5786 5783 5780 5777 5774 5771 5767 5763
5836 5835 5835 5834 5833 5832 5832 5831 5830 5829 5828 5826 5825 5824 5823 5822 5820 5819 5817 5815 5813 5812 5810 5808 5805 5803 5801 5799 5797 5794 5792 5789 5786 5783 5780 5777 5774 5771 5768 5765 5761 5757
5831 5831 5830 5829 5828 5827 5827 5826 5825 5824 5823 5822 5821 5819 5818 5817 5815 5814 5812 5810 5808 5807 5804 5802 5800 5798 5796 5793 5791 5788 5786 5783 5780 5777 5774 5771 5768 5765 5761 5758 5755 5751
5826 5826 5825 5824 5823 5822 5822 5821 5820 5819 5818 5817 5816 5815 5813 5812 5810 5808 5807 5805 5803 5801 5799 5797 5795 5792 5790 5788 5785 5783 5780 5777 5774 5771 5768 5765 5762 5758 5755 5751 5748 5744
5822 5821 5820 5819 5818 5818 5817 5816 5815 5814 5813 5812 5811 5810 5808 5806 5805 5803 5801 5800 5798 5796 5793 5791 5789 5787 5784 5782 5779 5777 5774 5771 5768 5765 5762 5759 5756 5752 5748 5744 5741 5737
5817 5816 5815 5814 5814 5813 5812 5811 5810 5809 5808 5807 5805 5804 5803 5801 5799 5798 5796 5794 5792 5790 5788 5786 5783 5781 5779 5776 5774 5771 5768 5765 5762 5759 5756 5752 5749 5745 5741 5737 5734 5730
5812 5811 5810 5809 5808 5807 5806 5806 5805 5804 5803 5801 5800 5798 5797 5795 5794 5792 5790 5788 5786 5784 5782 5780 5778 5775 5773 5770 5767 5764 5762 5759 5756 5752 5749 5745 5742 5738 5734 5730 5726 5723
5806 5805 5804 5803 5802 5802 5801 5800 5799 5798 5797 5795 5794 5793 5791 5789 5788 5786 5784 5782 5780 5778 5776 5774 5772 5769 5767 5764 5761 5758 5755 5752 5749 5746 5742 5738 5735 5731 5727 5723 5719 5715
5799 5798 5798 5797 5796 5796 5795 5794 5793 5792 5790 5789 5788 5786 5785 5783 5782 5780 5778 5776 5774 5772 5770 5768 5766 5763 5761 5758 5755 5752 5749 5746 5742 5739 5735 5731 5728 5724 5720 5716 5712 5708
5793 5792 5791 5791 5790 5789 5789 5788 5787 5785 5784 5783 5782 5780 5779 5777 5776 5774 5772 5770 5768 5766 5764 5762 5759 5757 5754 5752 5749 5746 5742 5739 5735 5732 5728 5724 5721 5717 5713 5709 5705 5700
5786 5786 5785 5785 5784 5783 5782 5781 5780 5779 5778 5777 5775 5774 5773 5771 5770 5768 5766 5764 5762 5760 5757 5755 5753 5750 5748 5745 5742 5739 5735 5732 5728 5725 5721 5717 5713 5709 5705 5701 5697 5693
5780 5779 5779 5778 5778 5777 5776 5775 5774 5773 5772 5770 5769 5768 5766 5765 5763 5762 5760 5758 5755 5753 5751 5749 5746 5744 5741 5739 5735 5732 5729 5725 5721 5717 5713 5709 5705 5701 5698 5693 5689 5685
5774 5774 5773 5772 5772 5771 5770 5769 5768 5767 5766 5764 5763 5761 5760 5758 5757 5755 5753 5751 5749 5747 5744 5742 5740 5737 5734 5732 5728 5725 5722 5718 5714 5710 5706 5702 5697 5693 5690 5686 5681 5678
5768 5767 5767 5766 5765 5765 5764 5763 5762 5760 5759 5758 5756 5755 5753 5752 5750 5748 5746 5744 5742 5740 5737 5735 5733 5730 5727 5725 5721 5717 5714 5711 5707 5703 5699 5695 5691 5686 5682 5678 5674 5670
5762 5761 5760 5760 5759 5758 5757 5756 5755 5753 5752 5751 5749 5748 5746 5745 5743 5742 5739 5737 5735 5733 5730 5728 5726 5723 5720 5717 5714 5710 5707 5703 5699 5696 5692 5688 5684 5680 5675 5671 5667 5662
5755 5755 5754 5753 5752 5751 5750 5749 5748 5746 5745 5744 5742 5741 5740 5738 5737 5735 5733 5730 5728 5726 5723 5721 5718 5716 5713 5709 5706 5703 5699 5696 5692 5688 5684 5680 5676 5672 5668 5664 5660 5656
5748 5748 5747 5746 5746 5744 5743 5742 5741 5739 5738 5737 5736 5734 5733 5731 5730 5728 5726 5723 5721 5718 5716 5714 5711 5708 5705 5702 5699 5695 5692 5688 5685 5680 5676 5672 5668 5665 5661 5657 5653 5649
5742 5741 5740 5740 5739 5737 5736 5735 5733 5732 5731 5730 5729 5727 5726 5724 5722 5720 5718 5716 5713 5711 5708 5706 5703 5700 5697 5694 5691 5688 5685 5681 5677 5673 5668 5664 5661 5657 5653 5650 5646 5642
5735 5735 5734 5732 5731 5730 5729 5728 5727 5726 5724 5723 5722 5720 5718 5717 5715 5713 5711 5708 5706 5703 5701 5698 5695 5692 5689 5687 5684 5680 5677 5674 5669 5665 5661 5657 5653 5649 5645 5641 5638 5634
5728 5727 5726 5725 5724 5723 5722 5721 5720 5718 5717 5716 5714 5712 5711 5709 5707 5705 5703 5700 5698 5695 5693 5690 5687 5685 5682 5679 5676 5673 5669 5666 5662 5658 5653 5649 5645 5641 5637 5633 5629 5626
5721 5720 5719 5718 5717 5716 5715 5714 5713 5711 5710 5708 5706 5705 5703 5701 5699 5697 5695 5693 5690 5687 5685 5682 5679 5677 5674 5671 5668 5665 5661 5658 5654 5650 5646 5642 5638 5634 5629 5625 5621 5617
5713 5712 5712 5711 5710 5709 5708 5706 5705 5704 5702 5701 5699 5697 5695 5693 5692 5690 5687 5685 5682 5679 5676 5674 5671 5668 5666 5663 5660 5657 5653 5650 5647 5643 5639 5635 5630 5626 5622 5617 5613 5609
5706 5705 5705 5704 5703 5701 5700 5699 5698 5696 5695 5693 5691 5689 5688 5686 5684 5682 5680 5677 5674 5671 5668 5665 5663 5661 5658 5655 5652 5649 5646 5642 5639 5636 5632 5628 5624 5619 5614 5610 5605 5600
5699 5698 5697 5696 5695 5694 5693 5691 5690 5689 5687 5685 5684 5682 5680 5678 5676 5674 5671 5669 5666 5663 5660 5658 5655 5653 5651 5648 5645 5641 5638 5635 5632 5629 5625 5621 5617 5612 5608 5603 5598 5592